QPF
0.00 0.00 0.00 0.00 0.01 0.00 0.00 0.00 0.00 0.00 0.00 0.00 0.00 0.00 0.00 0.01 0.01 0.01 0.01 0.01 0.01 0.01 0.01 0.01 0.01 0.01 0.01 0.02 0.03 0.03 0.04 0.05 0.03 0.02 0.02 0.02 0.01 0.01 0.01 0.01 0.01 0.01 0.01 0.02
0.00 0.00 0.00 0.00 0.00 0.00 0.00 0.00 0.00 0.00 0.00 0.00 0.00 0.00 0.00 0.00 0.01 0.01 0.00 0.01 0.01 0.01 0.01 0.01 0.01 0.01 0.01 0.02 0.03 0.03 0.03 0.04 0.03 0.03 0.03 0.02 0.02 0.01 0.01 0.01 0.01 0.01 0.01 0.02
0.00 0.00 0.00 0.00 0.00 0.00 0.00 0.00 0.00 0.00 0.00 0.00 0.00 0.00 0.00 0.00 0.00 0.00 0.00 0.01 0.01 0.01 0.01 0.01 0.01 0.01 0.01 0.02 0.02 0.02 0.02 0.03 0.03 0.03 0.02 0.02 0.01 0.01 0.01 0.01 0.01 0.01 0.01 0.01
0.00 0.00 0.00 0.00 0.00 0.00 0.00 0.00 0.00 0.00 0.00 0.00 0.00 0.00 0.00 0.00 0.00 0.00 0.00 0.00 0.00 0.00 0.00 0.00 0.00 0.01 0.01 0.01 0.01 0.01 0.02 0.02 0.02 0.03 0.02 0.02 0.01 0.01 0.01 0.01 0.01 0.01 0.01 0.00
0.00 0.00 0.00 0.00 0.00 0.00 0.00 0.00 0.00 0.00 0.01 0.00 0.00 0.00 0.00 0.00 0.00 0.00 0.00 0.00 0.00 0.00 0.00 0.00 0.00 0.00 0.01 0.01 0.01 0.02 0.01 0.02 0.02 0.03 0.03 0.04 0.03 0.02 0.01 0.01 0.00 0.00 0.00 0.00
0.00 0.00 0.00 0.00 0.00 0.00 0.00 0.00 0.00 0.01 0.01 0.00 0.00 0.00 0.00 0.00 0.00 0.00 0.00 0.00 0.00 0.00 0.00 0.00 0.00 0.00 0.01 0.02 0.02 0.01 0.02 0.03 0.03 0.03 0.04 0.04 0.04 0.02 0.01 0.01 0.00 0.00 0.00 0.00
0.00 0.00 0.00 0.00 0.00 0.00 0.00 0.00 0.00 0.00 0.00 0.00 0.00 0.00 0.00 0.00 0.00 0.00 0.00 0.00 0.00 0.00 0.00 0.00 0.00 0.01 0.01 0.01 0.01 0.02 0.02 0.03 0.04 0.05 0.04 0.04 0.03 0.03 0.02 0.01 0.01 0.00 0.00 0.00
0.00 0.00 0.00 0.00 0.00 0.00 0.00 0.00 0.00 0.00 0.00 0.00 0.00 0.00 0.00 0.00 0.00 0.00 0.00 0.00 0.00 0.00 0.00 0.00 0.00 0.01 0.01 0.01 0.01 0.02 0.03 0.05 0.06 0.06 0.06 0.05 0.05 0.04 0.03 0.02 0.01 0.01 0.00 0.00
0.00 0.00 0.00 0.00 0.00 0.00 0.00 0.00 0.00 0.00 0.00 0.00 0.00 0.00 0.00 0.00 0.00 0.00 0.00 0.00 0.00 0.00 0.00 0.00 0.00 0.00 0.00 0.00 0.01 0.02 0.03 0.06 0.09 0.08 0.07 0.07 0.06 0.05 0.04 0.03 0.02 0.01 0.01 0.02
0.00 0.00 0.00 0.00 0.00 0.01 0.01 0.01 0.00 0.00 0.00 0.00 0.00 0.00 0.00 0.00 0.00 0.00 0.00 0.00 0.00 0.00 0.00 0.00 0.00 0.00 0.00 0.00 0.01 0.03 0.06 0.07 0.09 0.08 0.04 0.03 0.04 0.04 0.04 0.04 0.03 0.02 0.02 0.02
0.00 0.00 0.00 0.00 0.00 0.01 0.01 0.01 0.00 0.00 0.00 0.00 0.00 0.00 0.00 0.00 0.00 0.00 0.00 0.00 0.00 0.00 0.00 0.00 0.00 0.00 0.01 0.01 0.02 0.03 0.04 0.05 0.05 0.04 0.03 0.02 0.03 0.04 0.04 0.03 0.03 0.03 0.02 0.02
0.00 0.01 0.00 0.00 0.00 0.00 0.01 0.00 0.00 0.00 0.00 0.00 0.00 0.00 0.00 0.00 0.00 0.00 0.00 0.00 0.00 0.00 0.00 0.00 0.00 0.00 0.00 0.00 0.01 0.02 0.02 0.02 0.02 0.02 0.02 0.02 0.02 0.03 0.04 0.04 0.05 0.05 0.04 0.04
0.00 0.01 0.00 0.00 0.00 0.00 0.01 0.01 0.00 0.00 0.00 0.00 0.00 0.00 0.00 0.00 0.00 0.00 0.00 0.00 0.00 0.00 0.00 0.00 0.00 0.00 0.00 0.00 0.01 0.01 0.01 0.01 0.02 0.01 0.01 0.02 0.02 0.03 0.03 0.03 0.04 0.05 0.04 0.03
0.00 0.00 0.00 0.00 0.00 0.00 0.00 0.00 0.00 0.00 0.00 0.00 0.00 0.00 0.00 0.00 0.00 0.00 0.00 0.00 0.00 0.00 0.00 0.00 0.00 0.00 0.00 0.01 0.01 0.00 0.00 0.01 0.01 0.01 0.01 0.01 0.02 0.03 0.03 0.03 0.04 0.04 0.04 0.04
0.00 0.00 0.00 0.00 0.00 0.00 0.00 0.00 0.00 0.00 0.00 0.00 0.00 0.00 0.00 0.00 0.00 0.00 0.00 0.00 0.01 0.01 0.01 0.01 0.01 0.00 0.00 0.01 0.01 0.00 0.00 0.00 0.00 0.01 0.01 0.01 0.01 0.03 0.04 0.03 0.03 0.04 0.03 0.03
0.00 0.00 0.00 0.00 0.00 0.00 0.00 0.00 0.00 0.00 0.00 0.00 0.00 0.00 0.00 0.00 0.00 0.00 0.00 0.00 0.00 0.00 0.00 0.01 0.00 0.00 0.01 0.01 0.01 0.01 0.01 0.01 0.00 0.01 0.01 0.01 0.01 0.02 0.03 0.03 0.03 0.04 0.04 0.03
0.01 0.00 0.00 0.00 0.00 0.00 0.00 0.00 0.00 0.00 0.00 0.00 0.00 0.00 0.00 0.00 0.00 0.00 0.00 0.00 0.00 0.00 0.00 0.00 0.00 0.00 0.01 0.01 0.01 0.01 0.01 0.00 0.00 0.01 0.01 0.01 0.02 0.02 0.02 0.04 0.05 0.04 0.04 0.04
0.01 0.01 0.00 0.00 0.00 0.00 0.00 0.00 0.00 0.00 0.00 0.00 0.00 0.00 0.00 0.00 0.00 0.00 0.00 0.00 0.00 0.00 0.00 0.00 0.00 0.00 0.00 0.00 0.00 0.01 0.01 0.01 0.01 0.01 0.01 0.01 0.02 0.03 0.03 0.03 0.05 0.04 0.04 0.06
0.01 0.01 0.01 0.00 0.00 0.00 0.00 0.00 0.00 0.00 0.00 0.00 0.00 0.00 0.00 0.00 0.00 0.00 0.00 0.00 0.00 0.00 0.00 0.00 0.00 0.00 0.00 0.00 0.00 0.00 0.00 0.01 0.01 0.02 0.02 0.01 0.02 0.03 0.03 0.02 0.03 0.04 0.04 0.05
0.01 0.02 0.01 0.01 0.00 0.00 0.00 0.00 0.00 0.00 0.00 0.00 0.00 0.00 0.00 0.00 0.00 0.00 0.00 0.00 0.00 0.00 0.00 0.00 0.00 0.00 0.00 0.00 0.00 0.00 0.00 0.00 0.01 0.01 0.02 0.02 0.01 0.02 0.03 0.03 0.03 0.05 0.05 0.04
0.01 0.02 0.02 0.01 0.01 0.00 0.00 0.00 0.00 0.00 0.00 0.00 0.01 0.01 0.00 0.00 0.01 0.01 0.00 0.00 0.00 0.00 0.00 0.00 0.00 0.00 0.00 0.00 0.00 0.00 0.00 0.00 0.01 0.01 0.03 0.03 0.01 0.02 0.02 0.03 0.04 0.04 0.05 0.04
0.01 0.02 0.01 0.01 0.01 0.01 0.00 0.00 0.00 0.00 0.00 0.00 0.00 0.01 0.00 0.00 0.00 0.01 0.01 0.00 0.00 0.00 0.00 0.00 0.00 0.00 0.00 0.00 0.00 0.00 0.00 0.00 0.01 0.01 0.02 0.04 0.02 0.02 0.01 0.02 0.02 0.03 0.04 0.04
0.01 0.02 0.02 0.01 0.01 0.00 0.00 0.00 0.01 0.00 0.00 0.00 0.00 0.00 0.00 0.00 0.01 0.01 0.01 0.01 0.01 0.00 0.00 0.00 0.00 0.00 0.00 0.00 0.00 0.00 0.00 0.00 0.00 0.01 0.01 0.02 0.02 0.02 0.02 0.02 0.02 0.02 0.03 0.03
0.03 0.02 0.02 0.01 0.01 0.00 0.00 0.00 0.01 0.00 0.00 0.00 0.00 0.00 0.00 0.00 0.00 0.01 0.01 0.01 0.01 0.00 0.00 0.00 0.00 0.00 0.00 0.00 0.00 0.00 0.00 0.01 0.01 0.01 0.01 0.01 0.01 0.02 0.02 0.02 0.02 0.02 0.02 0.02
0.03 0.03 0.03 0.02 0.01 0.01 0.01 0.00 0.00 0.00 0.00 0.00 0.00 0.00 0.00 0.00 0.01 0.01 0.01 0.01 0.00 0.00 0.00 0.00 0.00 0.01 0.01 0.00 0.00 0.01 0.00 0.01 0.01 0.01 0.02 0.02 0.02 0.02 0.02 0.03 0.02 0.02 0.02 0.02
0.01 0.01 0.02 0.02 0.02 0.01 0.01 0.00 0.00 0.00 0.00 0.00 0.00 0.00 0.00 0.00 0.01 0.01 0.01 0.01 0.01 0.01 0.01 0.01 0.01 0.01 0.01 0.01 0.01 0.01 0.01 0.01 0.01 0.01 0.02 0.02 0.03 0.02 0.03 0.03 0.03 0.04 0.03 0.03
MSLP
1017.73 1018.51 1019.18 1019.73 1020.16 1020.49 1020.75 1020.96 1021.14 1021.28 1021.37 1021.40 1021.35 1021.22 1021.03 1020.78 1020.51 1020.26 1020.05 1019.90 1019.81 1019.77 1019.76 1019.74 1019.72 1019.67 1019.60 1019.54 1019.49 1019.49 1019.56 1019.71 1019.91 1020.15 1020.39 1020.59 1020.70 1020.72 1020.63 1020.43 1020.18 1019.89 1019.63 1019.42
1018.39 1018.98 1019.45 1019.83 1020.14 1020.43 1020.72 1021.03 1021.34 1021.63 1021.85 1021.97 1021.95 1021.78 1021.49 1021.10 1020.69 1020.29 1019.98 1019.76 1019.65 1019.64 1019.68 1019.74 1019.77 1019.76 1019.72 1019.65 1019.58 1019.57 1019.63 1019.78 1020.01 1020.29 1020.59 1020.85 1021.03 1021.10 1021.04 1020.88 1020.65 1020.38 1020.13 1019.94
1018.73 1019.11 1019.38 1019.61 1019.85 1020.13 1020.50 1020.94 1021.43 1021.90 1022.27 1022.48 1022.48 1022.26 1021.85 1021.30 1020.71 1020.16 1019.72 1019.43 1019.30 1019.30 1019.40 1019.53 1019.63 1019.68 1019.68 1019.62 1019.57 1019.55 1019.62 1019.79 1020.05 1020.39 1020.75 1021.08 1021.33 1021.46 1021.46 1021.34 1021.14 1020.91 1020.69 1020.52
1018.74 1018.92 1019.02 1019.14 1019.34 1019.68 1020.17 1020.79 1021.48 1022.13 1022.65 1022.93 1022.94 1022.65 1022.11 1021.39 1020.62 1019.90 1019.32 1018.95 1018.78 1018.81 1018.95 1019.15 1019.34 1019.46 1019.50 1019.49 1019.46 1019.47 1019.55 1019.75 1020.05 1020.44 1020.86 1021.26 1021.58 1021.78 1021.85 1021.79 1021.64 1021.46 1021.27 1021.14
1018.49 1018.49 1018.47 1018.53 1018.75 1019.18 1019.83 1020.64 1021.53 1022.36 1023.01 1023.35 1023.34 1022.97 1022.28 1021.39 1020.43 1019.55 1018.84 1018.38 1018.18 1018.22 1018.42 1018.69 1018.95 1019.14 1019.25 1019.29 1019.30 1019.33 1019.44 1019.66 1020.00 1020.43 1020.90 1021.36 1021.75 1022.03 1022.17 1022.18 1022.10 1021.97 1021.84 1021.75
1018.08 1017.95 1017.86 1017.91 1018.19 1018.74 1019.56 1020.57 1021.63 1022.61 1023.34 1023.72 1023.66 1023.19 1022.36 1021.30 1020.17 1019.14 1018.31 1017.78 1017.56 1017.61 1017.86 1018.19 1018.53 1018.80 1018.97 1019.06 1019.10 1019.16 1019.29 1019.53 1019.89 1020.35 1020.86 1021.38 1021.83 1022.17 1022.38 1022.47 1022.46 1022.41 1022.34 1022.31
1017.64 1017.43 1017.31 1017.40 1017.77 1018.46 1019.43 1020.59 1021.79 1022.86 1023.64 1023.99 1023.87 1023.28 1022.31 1021.10 1019.84 1018.69 1017.78 1017.20 1016.97 1017.04 1017.32 1017.72 1018.12 1018.45 1018.68 1018.81 1018.89 1018.97 1019.11 1019.36 1019.72 1020.20 1020.74 1021.28 1021.78 1022.18 1022.47 1022.63 1022.71 1022.73 1022.74 1022.77
1017.26 1017.03 1016.94 1017.09 1017.56 1018.37 1019.45 1020.71 1021.98 1023.07 1023.83 1024.12 1023.91 1023.21 1022.12 1020.80 1019.44 1018.22 1017.26 1016.66 1016.43 1016.52 1016.85 1017.29 1017.74 1018.12 1018.39 1018.56 1018.66 1018.75 1018.89 1019.14 1019.50 1019.97 1020.52 1021.08 1021.62 1022.07 1022.42 1022.67 1022.83 1022.93 1023.02 1023.12
1017.02 1016.81 1016.78 1017.01 1017.57 1018.45 1019.59 1020.88 1022.14 1023.18 1023.86 1024.06 1023.74 1022.93 1021.76 1020.37 1018.97 1017.72 1016.76 1016.17 1015.95 1016.07 1016.42 1016.89 1017.37 1017.77 1018.07 1018.26 1018.38 1018.47 1018.62 1018.86 1019.22 1019.68 1020.22 1020.80 1021.36 1021.86 1022.28 1022.59 1022.83 1023.02 1023.18 1023.35
1016.91 1016.77 1016.82 1017.13 1017.74 1018.65 1019.79 1021.02 1022.19 1023.12 1023.67 1023.75 1023.32 1022.44 1021.22 1019.82 1018.43 1017.21 1016.29 1015.73 1015.54 1015.67 1016.02 1016.50 1016.98 1017.39 1017.70 1017.90 1018.02 1018.13 1018.29 1018.52 1018.88 1019.34 1019.88 1020.47 1021.06 1021.60 1022.06 1022.45 1022.76 1023.02 1023.25 1023.47
1016.92 1016.87 1017.00 1017.37 1018.00 1018.89 1019.95 1021.06 1022.07 1022.84 1023.23 1023.18 1022.67 1021.75 1020.54 1019.19 1017.86 1016.72 1015.87 1015.36 1015.19 1015.33 1015.67 1016.11 1016.56 1016.95 1017.24 1017.44 1017.58 1017.70 1017.87 1018.13 1018.49 1018.96 1019.52 1020.12 1020.73 1021.31 1021.83 1022.27 1022.65 1022.97 1023.25 1023.52
1017.00 1017.04 1017.24 1017.64 1018.26 1019.06 1019.99 1020.93 1021.75 1022.32 1022.55 1022.38 1021.82 1020.91 1019.77 1018.52 1017.32 1016.30 1015.54 1015.09 1014.95 1015.06 1015.35 1015.73 1016.12 1016.45 1016.71 1016.90 1017.04 1017.19 1017.39 1017.68 1018.07 1018.57 1019.15 1019.78 1020.42 1021.03 1021.59 1022.08 1022.51 1022.88 1023.20 1023.49
1017.13 1017.26 1017.50 1017.90 1018.45 1019.14 1019.89 1020.62 1021.22 1021.60 1021.68 1021.43 1020.85 1020.01 1018.99 1017.90 1016.87 1016.00 1015.36 1014.97 1014.83 1014.90 1015.11 1015.39 1015.68 1015.94 1016.14 1016.31 1016.46 1016.63 1016.87 1017.20 1017.64 1018.17 1018.78 1019.44 1020.11 1020.75 1021.35 1021.88 1022.34 1022.75 1023.10 1023.41
1017.31 1017.50 1017.76 1018.12 1018.57 1019.10 1019.65 1020.15 1020.54 1020.73 1020.69 1020.40 1019.86 1019.13 1018.28 1017.39 1016.57 1015.87 1015.35 1015.02 1014.88 1014.89 1014.99 1015.15 1015.32 1015.47 1015.60 1015.73 1015.87 1016.06 1016.34 1016.72 1017.19 1017.76 1018.40 1019.08 1019.78 1020.45 1021.07 1021.63 1022.12 1022.55 1022.92 1023.24
1017.60 1017.81 1018.05 1018.34 1018.66 1019.00 1019.33 1019.61 1019.78 1019.82 1019.69 1019.38 1018.92 1018.34 1017.70 1017.04 1016.44 1015.93 1015.54 1015.27 1015.11 1015.04 1015.03 1015.04 1015.07 1015.10 1015.14 1015.22 1015.34 1015.54 1015.84 1016.25 1016.75 1017.34 1018.00 1018.69 1019.39 1020.07 1020.70 1021.29 1021.80 1022.26 1022.65 1022.98
1018.04 1018.24 1018.42 1018.60 1018.77 1018.91 1019.02 1019.08 1019.07 1018.97 1018.77 1018.48 1018.13 1017.72 1017.29 1016.87 1016.49 1016.17 1015.90 1015.68 1015.51 1015.36 1015.23 1015.10 1014.99 1014.89 1014.83 1014.84 1014.92 1015.11 1015.41 1015.82 1016.32 1016.90 1017.55 1018.22 1018.91 1019.58 1020.21 1020.80 1021.34 1021.82 1022.24 1022.60
1018.67 1018.82 1018.92 1018.97 1018.97 1018.92 1018.82 1018.67 1018.48 1018.26 1018.02 1017.77 1017.51 1017.27 1017.05 1016.86 1016.69 1016.53 1016.38 1016.21 1016.02 1015.81 1015.57 1015.32 1015.07 1014.86 1014.70 1014.63 1014.66 1014.81 1015.07 1015.45 1015.92 1016.46 1017.05 1017.68 1018.32 1018.96 1019.58 1020.17 1020.72 1021.23 1021.68 1022.09
1019.47 1019.56 1019.56 1019.48 1019.31 1019.07 1018.77 1018.44 1018.10 1017.78 1017.50 1017.27 1017.10 1017.01 1016.96 1016.96 1016.96 1016.95 1016.90 1016.78 1016.59 1016.34 1016.02 1015.67 1015.32 1015.01 1014.77 1014.62 1014.58 1014.67 1014.87 1015.18 1015.57 1016.03 1016.54 1017.08 1017.65 1018.23 1018.81 1019.39 1019.95 1020.49 1020.99 1021.44
1020.37 1020.39 1020.30 1020.09 1019.77 1019.36 1018.90 1018.41 1017.94 1017.53 1017.21 1016.99 1016.89 1016.90 1016.98 1017.11 1017.25 1017.35 1017.38 1017.31 1017.14 1016.86 1016.51 1016.10 1015.70 1015.32 1015.01 1014.80 1014.70 1014.71 1014.82 1015.03 1015.32 1015.66 1016.05 1016.48 1016.95 1017.45 1017.98 1018.53 1019.10 1019.66 1020.20 1020.70
1021.25 1021.21 1021.03 1020.72 1020.28 1019.75 1019.16 1018.55 1017.98 1017.50 1017.14 1016.92 1016.84 1016.90 1017.06 1017.28 1017.50 1017.67 1017.77 1017.74 1017.60 1017.34 1016.98 1016.58 1016.15 1015.75 1015.42 1015.16 1015.00 1014.93 1014.96 1015.05 1015.21 1015.42 1015.67 1015.97 1016.32 1016.72 1017.18 1017.69 1018.23 1018.80 1019.37 1019.91
1021.96 1021.87 1021.64 1021.26 1020.75 1020.14 1019.47 1018.79 1018.17 1017.63 1017.24 1017.00 1016.93 1017.00 1017.18 1017.43 1017.69 1017.91 1018.04 1018.06 1017.96 1017.74 1017.43 1017.06 1016.66 1016.29 1015.95 1015.68 1015.48 1015.35 1015.28 1015.26 1015.29 1015.36 1015.47 1015.63 1015.85 1016.14 1016.51 1016.95 1017.46 1018.01 1018.57 1019.13
1022.39 1022.27 1022.01 1021.61 1021.08 1020.44 1019.76 1019.06 1018.42 1017.87 1017.46 1017.20 1017.11 1017.17 1017.34 1017.58 1017.84 1018.07 1018.23 1018.29 1018.23 1018.08 1017.84 1017.54 1017.21 1016.89 1016.59 1016.34 1016.12 1015.94 1015.80 1015.68 1015.59 1015.52 1015.49 1015.52 1015.61 1015.79 1016.06 1016.42 1016.86 1017.36 1017.89 1018.42
1022.48 1022.34 1022.08 1021.69 1021.18 1020.59 1019.94 1019.29 1018.68 1018.15 1017.75 1017.50 1017.39 1017.42 1017.55 1017.76 1018.00 1018.21 1018.38 1018.47 1018.47 1018.39 1018.23 1018.03 1017.80 1017.55 1017.32 1017.10 1016.88 1016.68 1016.48 1016.29 1016.10 1015.92 1015.78 1015.68 1015.66 1015.72 1015.89 1016.15 1016.50 1016.92 1017.37 1017.84
1022.25 1022.10 1021.86 1021.51 1021.07 1020.55 1020.00 1019.44 1018.91 1018.46 1018.10 1017.86 1017.75 1017.75 1017.85 1018.01 1018.21 1018.40 1018.56 1018.67 1018.73 1018.71 1018.65 1018.54 1018.41 1018.26 1018.09 1017.91 1017.73 1017.52 1017.29 1017.04 1016.78 1016.52 1016.29 1016.10 1015.98 1015.94 1016.01 1016.17 1016.42 1016.73 1017.08 1017.44
1021.80 1021.64 1021.42 1021.13 1020.78 1020.38 1019.96 1019.53 1019.13 1018.78 1018.49 1018.30 1018.20 1018.18 1018.25 1018.37 1018.52 1018.68 1018.83 1018.95 1019.04 1019.09 1019.10 1019.08 1019.03 1018.96 1018.86 1018.74 1018.58 1018.38 1018.14 1017.86 1017.56 1017.26 1016.96 1016.71 1016.52 1016.41 1016.39 1016.45 1016.59 1016.79 1017.02 1017.26
1021.27 1021.10 1020.91 1020.68 1020.44 1020.17 1019.90 1019.62 1019.36 1019.13 1018.94 1018.81 1018.74 1018.73 1018.77 1018.85 1018.96 1019.09 1019.21 1019.34 1019.44 1019.52 1019.59 1019.63 1019.64 1019.63 1019.58 1019.49 1019.35 1019.17 1018.93 1018.65 1018.34 1018.03 1017.72 1017.44 1017.21 1017.05 1016.97 1016.95 1016.99 1017.08 1017.19 1017.31
Thickness
5734 5720 5710 5714 5718 5718 5713 5706 5703 5709 5719 5711 5704 5704 5710 5713 5712 5710 5709 5709 5709 5711 5715 5716 5717 5718 5717 5716 5715 5715 5713 5712 5711 5708 5706 5703 5701 5701 5700 5699 5699 5698 5697 5696
5716 5712 5721 5725 5723 5718 5712 5703 5702 5708 5717 5710 5701 5702 5709 5711 5710 5711 5710 5709 5709 5709 5711 5712 5713 5713 5712 5711 5711 5710 5709 5708 5707 5705 5703 5701 5698 5697 5696 5695 5694 5693 5693 5692
5710 5717 5728 5722 5716 5711 5708 5703 5703 5703 5709 5708 5702 5695 5702 5710 5712 5712 5711 5711 5710 5709 5708 5709 5709 5709 5708 5707 5707 5707 5705 5704 5704 5702 5700 5697 5694 5692 5691 5690 5689 5689 5688 5688
5712 5721 5722 5717 5712 5710 5701 5713 5711 5706 5695 5686 5694 5675 5692 5701 5703 5707 5707 5707 5708 5709 5708 5707 5707 5706 5705 5705 5705 5704 5702 5701 5700 5699 5696 5692 5689 5686 5686 5685 5685 5685 5685 5684
5709 5717 5716 5711 5714 5715 5710 5715 5709 5703 5692 5681 5683 5675 5682 5695 5696 5702 5705 5706 5707 5707 5707 5706 5705 5705 5704 5703 5701 5700 5699 5697 5695 5694 5691 5688 5686 5684 5683 5682 5681 5681 5680 5680
5712 5721 5720 5718 5721 5719 5714 5704 5695 5684 5678 5668 5676 5671 5674 5686 5696 5702 5706 5706 5707 5706 5705 5704 5703 5702 5700 5699 5698 5696 5694 5692 5691 5689 5687 5685 5682 5680 5678 5677 5676 5675 5675 5675
5701 5710 5718 5723 5712 5710 5703 5685 5666 5663 5654 5659 5674 5670 5676 5697 5702 5704 5705 5705 5705 5704 5701 5700 5698 5696 5695 5694 5693 5691 5689 5686 5685 5684 5682 5681 5679 5677 5675 5673 5672 5671 5670 5670
5684 5685 5707 5715 5709 5700 5695 5685 5662 5653 5649 5655 5668 5665 5683 5701 5704 5705 5705 5704 5703 5700 5698 5697 5696 5694 5692 5690 5688 5686 5684 5682 5680 5679 5677 5676 5675 5673 5671 5670 5668 5667 5667 5667
5680 5683 5707 5713 5714 5705 5689 5679 5680 5661 5656 5651 5657 5669 5685 5700 5699 5701 5700 5699 5697 5695 5694 5693 5692 5690 5688 5686 5684 5682 5679 5677 5675 5674 5672 5671 5670 5669 5667 5666 5665 5664 5663 5663
5690 5682 5696 5704 5707 5701 5696 5681 5664 5656 5646 5642 5653 5660 5668 5686 5690 5693 5694 5693 5693 5692 5690 5688 5686 5685 5684 5682 5680 5677 5675 5672 5670 5669 5667 5667 5665 5665 5663 5662 5660 5659 5659 5659
5691 5678 5683 5690 5689 5686 5683 5676 5664 5652 5650 5640 5639 5655 5684 5686 5689 5688 5689 5690 5689 5687 5685 5683 5681 5680 5678 5676 5674 5672 5669 5667 5665 5663 5662 5661 5660 5660 5659 5657 5656 5655 5655 5655
5683 5670 5665 5677 5689 5692 5687 5678 5664 5654 5647 5641 5637 5653 5691 5688 5688 5687 5686 5686 5686 5684 5681 5678 5676 5673 5671 5669 5668 5666 5664 5662 5661 5659 5657 5656 5655 5654 5653 5653 5652 5651 5650 5650
5679 5665 5654 5660 5667 5678 5678 5675 5668 5656 5643 5633 5634 5654 5687 5685 5685 5684 5684 5682 5680 5678 5675 5672 5669 5667 5665 5663 5662 5660 5659 5657 5656 5654 5653 5651 5649 5648 5648 5648 5647 5646 5646 5645
5680 5662 5657 5654 5659 5667 5668 5671 5665 5655 5640 5635 5642 5656 5674 5677 5678 5679 5679 5678 5675 5672 5669 5666 5663 5661 5660 5658 5656 5654 5653 5652 5651 5649 5648 5646 5644 5643 5642 5642 5642 5641 5640 5639
5674 5661 5662 5663 5668 5667 5666 5666 5663 5656 5652 5646 5653 5656 5669 5674 5675 5676 5675 5673 5670 5667 5665 5662 5659 5656 5654 5652 5650 5649 5647 5646 5645 5643 5642 5641 5640 5639 5637 5636 5636 5635 5634 5634
5662 5658 5658 5658 5663 5661 5659 5663 5662 5659 5658 5653 5655 5658 5671 5673 5671 5669 5668 5667 5665 5663 5661 5659 5655 5652 5649 5647 5645 5644 5642 5641 5639 5638 5636 5636 5634 5633 5631 5630 5629 5628 5627 5627
5649 5649 5645 5641 5649 5652 5648 5661 5661 5660 5661 5657 5652 5660 5667 5665 5665 5664 5663 5663 5661 5660 5658 5654 5651 5648 5646 5644 5642 5640 5638 5636 5634 5632 5631 5629 5628 5626 5625 5624 5622 5620 5619 5619
5644 5639 5631 5632 5639 5634 5653 5666 5665 5659 5658 5657 5658 5660 5661 5661 5662 5662 5661 5658 5656 5656 5654 5650 5647 5645 5643 5640 5638 5635 5633 5630 5628 5626 5624 5622 5621 5619 5618 5616 5615 5613 5613 5612
5643 5635 5624 5620 5624 5632 5649 5659 5657 5652 5652 5657 5655 5656 5656 5656 5655 5654 5657 5655 5653 5652 5650 5647 5644 5641 5638 5635 5632 5629 5626 5623 5621 5619 5618 5616 5614 5612 5610 5609 5608 5607 5605 5604
5632 5629 5620 5614 5620 5622 5643 5656 5657 5652 5643 5654 5652 5650 5648 5647 5637 5642 5651 5649 5647 5646 5643 5641 5637 5634 5631 5628 5626 5623 5619 5616 5615 5613 5612 5610 5608 5606 5604 5602 5601 5599 5598 5597
5621 5616 5612 5609 5611 5623 5640 5647 5649 5633 5638 5650 5647 5645 5642 5638 5638 5642 5643 5641 5639 5637 5636 5633 5630 5626 5623 5621 5618 5615 5612 5609 5608 5606 5605 5602 5600 5598 5597 5595 5593 5591 5590 5589
5615 5610 5606 5602 5605 5617 5638 5636 5633 5635 5642 5642 5640 5639 5636 5635 5636 5635 5634 5632 5630 5628 5626 5624 5620 5616 5614 5612 5609 5606 5604 5602 5600 5598 5596 5594 5592 5591 5590 5587 5585 5583 5581 5580
5609 5613 5610 5611 5617 5626 5630 5631 5634 5634 5633 5634 5633 5633 5631 5629 5628 5627 5625 5622 5621 5619 5616 5613 5610 5607 5604 5602 5600 5597 5595 5593 5591 5589 5586 5584 5583 5582 5580 5578 5576 5574 5573 5571
5607 5609 5606 5605 5614 5620 5623 5625 5627 5628 5628 5629 5628 5627 5625 5622 5620 5618 5616 5613 5611 5609 5606 5603 5600 5597 5594 5592 5591 5588 5586 5584 5582 5579 5576 5574 5573 5572 5570 5569 5568 5566 5565 5563
5604 5601 5598 5600 5608 5613 5618 5619 5621 5622 5622 5621 5621 5620 5617 5615 5612 5610 5607 5605 5602 5600 5597 5594 5590 5588 5585 5583 5580 5579 5576 5574 5571 5568 5566 5564 5563 5561 5560 5558 5558 5558 5557 5557
5597 5598 5596 5600 5607 5605 5609 5615 5615 5614 5613 5613 5611 5610 5609 5607 5604 5602 5599 5596 5593 5590 5587 5584 5581 5578 5575 5573 5571 5569 5566 5564 5561 5558 5556 5554 5552 5551 5550 5549 5548 5549 5549 5549